Location: Central Falls
(41.8900°N, 71.3929°W)
Time: 10:51:50
(UTC+00:00)

A-11 Canister half - Pass Details

Date: 12 December 2023
Orbit: 1526 x 1682 km, 47.3° (Epoch: 20 February)

Event Time Altitude Azimuth Distance (km) Brightness Sun altitude
Rises 06:11:40 0° 292° (WNW) 4,899 - -63.0°
Reaches altitude 10° 06:15:58 10° 277° (W) 3,885 - -62.4°
Maximum altitude 06:22:23 20° 235° (SW) 3,131 - -61.4°
Drops below altitude 10° 06:28:42 10° 194° (SSW) 3,792 - -60.4°
Sets 06:32:53 0° 178° (S) 4,745 - -59.7°
